Wellsville, NY

1:25 PM EDT on May 28, 2017 (GMT -0400)
Wellsville Municipal-Tarantine

Weather History for KELZ - March, 2012

Change the Weather History Date:

Monday, March 5, 2012

  Actual Average (KDSV) Record (KDSV)
Temperature  
Mean Temperature 20 °F -  
Max Temperature 26 °F 41 °F 67 °F (1974)
Min Temperature 14 °F 23 °F -3 °F (1972)
Degree Days  
Heating Degree Days 45    
Moisture  
Dew Point 8 °F    
Average Humidity 65    
Maximum Humidity 79    
Minimum Humidity 33    
Precipitation  
Precipitation 0.00 in - - ()
Sea Level Pressure  
Sea Level Pressure 30.11 in    
Wind  
Wind Speed 10 mph (WNW)    
Max Wind Speed 18 mph    
Max Gust Speed 23 mph    
Visibility 10 miles    
Events Snow    
Averages and records for this station are not official NWS values.
T = Trace of Precipitation, MM = Missing Value Source: NWS Daily Summary

Daily Weather History Graph

Daily Weather History Graph

Search for Another Location

Airport or City:

Trip Planner

Search our weather history database for the weather conditions in past years. The results will help you decide how hot, cold, wet, or windy it might be!

Date:

Astronomy

Mar. 05, 2012 Rise Set
Actual Time 6:39 AM EST 6:07 PM EST
Civil Twilight 6:11 AM EST 6:35 PM EST
Nautical Twilight 5:39 AM EST 7:07 PM EST
Astronomical Twilight 5:07 AM EST 7:40 PM EST
Moon 3:21 PM EST (3/5) 4:40 AM EST (3/5)
Length of Visible Light 12h 23m
Length of Day
11h 27m
Waxing Gibbous, 91% of the Moon is Illuminated
Mar 5
Waxing Gibbous
Mar 8
Full
Mar 14
Last Quarter
Mar 22
New
Mar 30
First Quarter

Hourly Weather History & Observations

Time (EST) Temp. Windchill Dew Point Humidity Pressure Visibility Wind Dir Wind Speed Gust Speed Precip Events Conditions
12:56 AM 19.0 °F 6.8 °F 10.9 °F 71% 29.84 in 10.0 mi WNW 11.5 mph - 0.00 in   Overcast
1:56 AM 19.0 °F 9.0 °F 12.9 °F 77% 29.85 in 4.0 mi NW 8.1 mph - 0.00 in Snow Light Snow
2:56 AM 16.0 °F 2.9 °F 9.0 °F 74% 29.86 in 10.0 mi WNW 11.5 mph - 0.00 in   Partly Cloudy
3:56 AM 15.1 °F 7.7 °F 9.0 °F 77% 29.88 in 10.0 mi NW 4.6 mph - N/A   Clear
4:19 AM 15.8 °F 8.6 °F 8.6 °F 73% 29.79 in 10.0 mi WNW 4.6 mph - N/A   Mostly Cloudy
4:37 AM 15.8 °F 5.1 °F 8.6 °F 73% 29.80 in 10.0 mi WNW 8.1 mph - N/A   Scattered Clouds
4:56 AM 14.0 °F 5.1 °F 8.1 °F 77% 29.91 in 10.0 mi NW 5.8 mph - N/A   Scattered Clouds
5:56 AM 14.0 °F 2.0 °F 7.0 °F 74% 29.94 in 10.0 mi WNW 9.2 mph - N/A   Clear
6:56 AM 14.0 °F 2.9 °F 7.0 °F 74% 29.96 in 10.0 mi NW 8.1 mph - N/A   Partly Cloudy
7:17 AM 14.0 °F 1.2 °F 8.6 °F 79% 29.87 in 7.0 mi WNW 10.4 mph - 0.00 in Snow Light Snow
7:41 AM 15.8 °F 3.4 °F 8.6 °F 73% 29.89 in 10.0 mi NW 10.4 mph - 0.00 in   Scattered Clouds
7:56 AM 15.1 °F 1.1 °F 8.1 °F 74% 30.00 in 10.0 mi WNW 12.7 mph - 0.00 in   Scattered Clouds
8:04 AM 15.8 °F 1.4 °F 8.6 °F 73% 29.90 in 10.0 mi WNW 13.8 mph - N/A   Mostly Cloudy
8:07 AM 15.8 °F 1.4 °F 8.6 °F 73% 29.91 in 9.0 mi WNW 13.8 mph - N/A   Mostly Cloudy
8:40 AM 17.6 °F 4.3 °F 8.6 °F 68% 29.93 in 10.0 mi WNW 12.7 mph - N/A   Mostly Cloudy
8:56 AM 17.1 °F 3.6 °F 8.1 °F 68% 30.04 in 10.0 mi WNW 12.7 mph - N/A   Scattered Clouds
9:56 AM 21.0 °F 8.6 °F 8.1 °F 57% 30.06 in 10.0 mi WNW 12.7 mph 18.4 mph N/A   Clear
10:56 AM 23.0 °F 12.4 °F 6.1 °F 48% 30.09 in 10.0 mi NNW 10.4 mph - N/A   Clear
11:56 AM 24.1 °F 17.0 °F 7.0 °F 48% 30.12 in 10.0 mi Variable 5.8 mph - N/A   Clear
12:56 PM 26.1 °F 13.6 °F 6.1 °F 43% 30.14 in 10.0 mi WNW 16.1 mph 20.7 mph N/A   Clear
1:56 PM 26.1 °F 15.0 °F 3.9 °F 39% 30.15 in 10.0 mi NNW 12.7 mph 18.4 mph N/A   Clear
2:56 PM 26.1 °F 14.5 °F 3.0 °F 37% 30.19 in 10.0 mi NW 13.8 mph 20.7 mph N/A   Clear
3:56 PM 25.0 °F 13.6 °F -0.9 °F 33% 30.23 in 10.0 mi NW 12.7 mph - N/A   Clear
4:56 PM 21.9 °F 10.4 °F 3.0 °F 44% 30.27 in 10.0 mi NNW 11.5 mph 19.6 mph N/A   Clear
5:56 PM 19.9 °F 4.8 °F 5.0 °F 52% 30.32 in 10.0 mi WNW 18.4 mph 23.0 mph N/A   Partly Cloudy
6:56 PM 19.0 °F 6.1 °F 8.1 °F 62% 30.34 in 10.0 mi NW 12.7 mph - N/A   Mostly Cloudy
7:47 PM 19.4 °F 7.2 °F 10.4 °F 68% 30.25 in 10.0 mi WNW 11.5 mph - 0.00 in Snow Light Snow
7:56 PM 19.0 °F 5.6 °F 10.0 °F 68% 30.38 in 9.0 mi WNW 13.8 mph - 0.00 in Snow Light Snow
8:06 PM 19.4 °F 6.0 °F 10.4 °F 68% 30.26 in 9.0 mi WNW 13.8 mph - 0.00 in Snow Light Snow
8:56 PM 18.0 °F 6.9 °F 9.0 °F 68% 30.40 in 10.0 mi West 9.2 mph - 0.00 in   Overcast
9:40 PM 17.6 °F 6.4 °F 8.6 °F 68% 30.29 in 10.0 mi WNW 9.2 mph - N/A   Scattered Clouds
9:56 PM 17.1 °F 6.6 °F 9.0 °F 71% 30.41 in 10.0 mi West 8.1 mph - N/A   Clear
10:24 PM 17.6 °F 8.2 °F 8.6 °F 68% 30.30 in 10.0 mi West 6.9 mph - N/A   Mostly Cloudy
10:33 PM 15.8 °F 7.2 °F 8.6 °F 73% 30.30 in 10.0 mi West 5.8 mph - N/A   Scattered Clouds
10:56 PM 16.0 °F 7.4 °F 9.0 °F 74% 30.41 in 10.0 mi West 5.8 mph - N/A   Scattered Clouds
11:30 PM 17.6 °F 10.7 °F 10.4 °F 73% 30.32 in 10.0 mi West 4.6 mph - N/A   Mostly Cloudy
11:56 PM 18.0 °F 11.1 °F 10.9 °F 74% 30.43 in 10.0 mi West 4.6 mph - N/A   Overcast